Location: Maccacari
(45.1333°N, 11.1333°E)
Time: 18:02:39
(UTC+00:00)

USA 234 - Pass Details

Date: 20 January 2021
Orbit: 1100 x 1107 km, 123.0° (Epoch: 01 March)

Event Time Altitude Azimuth Distance (km) Brightness Sun altitude
Exits shadow 16:52:56 10° 63° (ENE) 3,002 4.9 -8.3°
Reaches altitude 10° 16:53:03 10° 63° (ENE) 2,963 4.9 -8.3°
Maximum altitude 16:58:38 32° 4° (N) 1,812 4.2 -9.3°
Drops below altitude 10° 17:04:14 10° 305° (NW) 2,968 6.1 -10.2°
Sets 17:07:00 0° 295° (WNW) 3,927 6.9 -10.7°
